Location: Calvera
(42.3882°N, 0.6137°E)
Time: 14:25:34
(UTC+00:00)

deb Chang Zheng 4 - Pass Details

Date: 28 October 2020
Orbit: 602 x 625 km, 98.6° (Epoch: 24 November)

Event Time Altitude Azimuth Distance (km) Brightness Sun altitude
Rises 05:16:58 0° 5° (N) 2,865 7.0 -13.4°
Reaches altitude 10° 05:19:14 10° 358° (N) 1,959 6.0 -12.9°
Maximum altitude 05:23:10 38° 290° (WNW) 925 4.0 -12.2°
Drops below altitude 10° 05:27:07 10° 222° (SW) 1,955 5.8 -11.5°
Sets 05:29:23 0° 214° (SW) 2,858 6.7 -11.1°
